{"data":{"norad_id":66681,"epoch":"2026-09-19T14:44:16.821312Z","epoch_age_seconds":197519,"freshness":"STALE","line1":"1 66681U 25276R   26262.61408358  .00012256  00000+0  46988-3 0  9995","line2":"2 66681  97.4036 335.6001 0005559  55.8494 304.3271 15.26636818 44852","mean_motion":15.26636818,"eccentricity":0.0005559,"inclination_deg":97.4036,"raan_deg":335.6001,"arg_perigee_deg":55.8494,"mean_anomaly_deg":304.3271,"bstar":0.00046988,"rev_number":4485,"period_min":94.32498830249,"perigee_km":482.05907205495,"apogee_km":489.69048034773,"semimajor_km":6864.0117762013,"source":"CELESTRAK","updated_at":"2026-09-21T09:00:16.123577Z"}}